�������l�o���
Date,Time,MP-1(��Sv/h),MP-2(��Sv/h),MP-3(��Sv/h),MP-4(��Sv/h),MP-5(��Sv/h),MP-6(��Sv/h),MP-7(��Sv/h),MP-8(��Sv/h),����,����(m/s),���J
2023/03/22,00:00,0.563,0.819,0.496,1.023,0.720,0.322,0.577,0.551,�k�k��,2.5,��
2023/03/22,00:10,0.562,0.820,0.496,1.023,0.718,0.322,0.577,0.549,�k,2.6,��
2023/03/22,00:20,0.562,0.818,0.494,1.023,0.719,0.323,0.578,0.549,�k,2.6,��
2023/03/22,00:30,0.562,0.818,0.494,1.022,0.719,0.324,0.579,0.549,�k�k��,3.1,��
2023/03/22,00:40,0.562,0.819,0.497,1.023,0.719,0.322,0.577,0.549,�k�k��,2.6,��
2023/03/22,00:50,0.563,0.820,0.496,1.022,0.718,0.322,0.578,0.549,�k�k��,2.5,��
2023/03/22,01:00,0.561,0.819,0.495,1.025,0.718,0.322,0.578,0.550,�k�k��,3.6,��
2023/03/22,01:10,0.562,0.821,0.497,1.023,0.721,0.322,0.578,0.550,�k�k��,4.6,��
2023/03/22,01:20,0.564,0.820,0.495,1.025,0.718,0.322,0.578,0.549,�k�k��,4.7,��
2023/03/22,01:30,0.564,0.819,0.496,1.023,0.719,0.323,0.577,0.550,�k�k��,4.8,��
2023/03/22,01:40,0.563,0.821,0.495,1.022,0.720,0.322,0.578,0.549,�k�k��,4.9,��
2023/03/22,01:50,0.562,0.820,0.495,1.023,0.718,0.321,0.578,0.549,�k�k��,5.5,��
2023/03/22,02:00,0.562,0.821,0.498,1.026,0.720,0.322,0.578,0.550,�k�k��,5.7,��
2023/03/22,02:10,0.561,0.818,0.496,1.022,0.720,0.322,0.578,0.550,�k�k��,6.1,��
2023/03/22,02:20,0.563,0.817,0.497,1.024,0.720,0.322,0.578,0.548,�k�k��,6.9,��
2023/03/22,02:30,0.563,0.819,0.496,1.023,0.720,0.324,0.578,0.548,�k�k��,6.7,��
2023/03/22,02:40,0.562,0.817,0.495,1.022,0.719,0.323,0.577,0.550,�k�k��,6.5,��
2023/03/22,02:50,0.561,0.818,0.495,1.022,0.719,0.322,0.577,0.549,�k�k��,6.7,��
2023/03/22,03:00,0.563,0.818,0.495,1.023,0.720,0.321,0.577,0.548,�k�k��,6.5,��
2023/03/22,03:10,0.562,0.819,0.496,1.022,0.721,0.320,0.580,0.548,�k�k��,7.1,��
2023/03/22,03:20,0.562,0.819,0.494,1.023,0.719,0.323,0.578,0.550,�k�k��,7.3,��
2023/03/22,03:30,0.561,0.818,0.496,1.023,0.720,0.321,0.579,0.548,�k�k��,7.1,��
2023/03/22,03:40,0.562,0.818,0.495,1.023,0.719,0.321,0.579,0.549,�k�k��,6.6,��
2023/03/22,03:50,0.562,0.818,0.495,1.023,0.719,0.322,0.577,0.549,�k�k��,6.7,��
2023/03/22,04:00,0.563,0.818,0.495,1.023,0.718,0.322,0.578,0.549,�k�k��,6.6,��
2023/03/22,04:10,0.563,0.817,0.496,1.021,0.719,0.322,0.577,0.547,�k�k��,6.5,��
2023/03/22,04:20,0.561,0.819,0.497,1.024,0.718,0.322,0.579,0.548,�k�k��,7.0,��
2023/03/22,04:30,0.561,0.817,0.495,1.023,0.718,0.321,0.579,0.549,�k�k��,6.5,��
2023/03/22,04:40,0.561,0.819,0.495,1.021,0.718,0.322,0.579,0.549,�k�k��,6.2,��
2023/03/22,04:50,0.561,0.818,0.496,1.024,0.718,0.321,0.578,0.550,�k,6.2,��
2023/03/22,05:00,0.559,0.819,0.494,1.022,0.719,0.322,0.578,0.548,�k,6.6,��
2023/03/22,05:10,0.561,0.817,0.495,1.023,0.719,0.322,0.579,0.549,�k�k��,6.6,��
2023/03/22,05:20,0.560,0.818,0.494,1.021,0.719,0.321,0.578,0.550,�k�k��,5.2,��
2023/03/22,05:30,0.560,0.820,0.496,1.023,0.718,0.322,0.578,0.550,�k�k��,5.3,��
2023/03/22,05:40,0.561,0.817,0.493,1.023,0.718,0.321,0.578,0.549,�k�k��,5.8,��
2023/03/22,05:50,0.562,0.816,0.495,1.020,0.717,0.321,0.577,0.549,�k�k��,5.5,��
2023/03/22,06:00,0.561,0.816,0.495,1.021,0.717,0.322,0.577,0.549,�k�k��,5.5,��
2023/03/22,06:10,0.561,0.819,0.496,1.020,0.718,0.321,0.577,0.548,�k�k��,5.6,��
2023/03/22,06:20,0.561,0.817,0.495,1.022,0.717,0.322,0.578,0.549,�k�k��,5.8,��
2023/03/22,06:30,0.562,0.817,0.495,1.023,0.719,0.320,0.578,0.549,�k�k��,6.1,��
2023/03/22,06:40,0.562,0.818,0.496,1.019,0.719,0.322,0.577,0.549,�k�k��,6.1,��
2023/03/22,06:50,0.561,0.818,0.496,1.021,0.719,0.322,0.576,0.549,�k�k��,6.0,��
2023/03/22,07:00,0.560,0.818,0.496,1.021,0.716,0.321,0.578,0.549,�k�k��,5.8,��
2023/03/22,07:10,0.561,0.819,0.496,1.023,0.719,0.322,0.578,0.549,�k�k��,5.6,��
2023/03/22,07:20,0.562,0.819,0.496,1.021,0.718,0.321,0.578,0.547,�k�k��,5.9,��
2023/03/22,07:30,0.561,0.821,0.497,1.022,0.717,0.322,0.578,0.547,�k�k��,5.6,��
2023/03/22,07:40,0.561,0.819,0.496,1.021,0.720,0.322,0.578,0.547,�k�k��,4.7,��
2023/03/22,07:50,0.562,0.820,0.497,1.022,0.719,0.322,0.579,0.548,�k�k��,4.4,��
2023/03/22,08:00,0.562,0.817,0.498,1.024,0.718,0.321,0.578,0.549,�k�k��,3.6,��
2023/03/22,08:10,0.562,0.818,0.496,1.023,0.719,0.319,0.578,0.549,�k�k��,3.7,��
2023/03/22,08:20,0.564,0.817,0.495,1.022,0.720,0.320,0.579,0.549,�k,2.8,��
2023/03/22,08:30,0.562,0.818,0.497,1.022,0.719,0.320,0.578,0.551,�k�k��,3.9,��
2023/03/22,08:40,0.563,0.816,0.497,1.025,0.718,0.321,0.576,0.550,�k,3.0,��
2023/03/22,08:50,0.563,0.819,0.496,1.024,0.721,0.319,0.576,0.549,�k,3.5,��
2023/03/22,09:00,0.565,0.818,0.496,1.024,0.719,0.320,0.576,0.549,�k,4.0,��
2023/03/22,09:10,0.561,0.816,0.498,1.022,0.720,0.320,0.577,0.547,�k,3.7,��
2023/03/22,09:20,0.563,0.818,0.495,1.021,0.719,0.321,0.577,0.547,�k,4.0,��
2023/03/22,09:30,0.562,0.818,0.496,1.024,0.722,0.320,0.576,0.548,�k,4.7,��
2023/03/22,09:40,0.561,0.817,0.496,1.024,0.720,0.320,0.577,0.546,�k,5.4,��
2023/03/22,09:50,0.562,0.819,0.497,1.023,0.718,0.320,0.577,0.547,�k,5.7,��
2023/03/22,10:00,0.560,0.819,0.495,1.024,0.717,0.320,0.577,0.549,�k,5.7,��
2023/03/22,10:10,0.562,0.819,0.495,1.023,0.718,0.320,0.577,0.548,�k,6.1,��
2023/03/22,10:20,0.560,0.820,0.495,1.023,0.719,0.320,0.576,0.547,�k,5.9,��
2023/03/22,10:30,0.562,0.820,0.494,1.022,0.719,0.320,0.577,0.546,�k,5.1,��
2023/03/22,10:40,0.561,0.820,0.494,1.022,0.719,0.319,0.577,0.548,�k,5.1,��
2023/03/22,10:50,0.562,0.818,0.495,1.023,0.717,0.320,0.577,0.549,�k,4.9,��
2023/03/22,11:00,0.562,0.820,0.493,1.022,0.720,0.320,0.575,0.547,�k�k��,4.9,��
2023/03/22,11:10,0.561,0.821,0.493,1.022,0.719,0.320,0.576,0.547,�k�k��,5.7,��
2023/03/22,11:20,0.561,0.821,0.494,1.023,0.722,0.319,0.577,0.547,�k,5.4,��
2023/03/22,11:30,0.562,0.820,0.496,1.024,0.720,0.321,0.575,0.550,�k,4.4,��
2023/03/22,11:40,0.562,0.819,0.496,1.022,0.721,0.321,0.578,0.548,�k,4.6,��
2023/03/22,11:50,0.562,0.818,0.495,1.024,0.722,0.321,0.578,0.548,�k,4.9,��
2023/03/22,12:00,0.565,0.820,0.495,1.025,0.721,0.320,0.580,0.548,�k,3.7,��
2023/03/22,12:10,0.562,0.820,0.495,1.025,0.722,0.321,0.577,0.548,�k�k��,4.4,��
2023/03/22,12:20,0.562,0.819,0.495,1.024,0.722,0.320,0.579,0.549,�k�k��,4.3,��
2023/03/22,12:30,0.561,0.822,0.495,1.023,0.721,0.319,0.578,0.549,�k�k��,4.5,��
2023/03/22,12:40,0.564,0.823,0.494,1.025,0.723,0.322,0.579,0.548,�k�k��,4.1,��
2023/03/22,12:50,0.564,0.822,0.494,1.025,0.722,0.321,0.579,0.548,�k��,3.9,��
2023/03/22,13:00,0.562,0.823,0.497,1.026,0.722,0.321,0.578,0.546,�k��,3.4,��
2023/03/22,13:10,0.561,0.821,0.497,1.025,0.722,0.321,0.577,0.548,�k��,3.0,��
2023/03/22,13:20,0.562,0.819,0.495,1.027,0.722,0.321,0.579,0.548,�k��,3.3,��
2023/03/22,13:30,0.563,0.821,0.496,1.026,0.721,0.322,0.578,0.550,�k��,3.7,��
2023/03/22,13:40,0.563,0.822,0.495,1.028,0.720,0.321,0.579,0.550,�k�k��,3.1,��
2023/03/22,13:50,0.562,0.822,0.496,1.025,0.723,0.320,0.578,0.549,�k�k��,2.3,��
2023/03/22,14:00,0.564,0.823,0.495,1.025,0.722,0.321,0.578,0.548,���k��,2.3,��
2023/03/22,14:10,0.563,0.822,0.497,1.027,0.721,0.320,0.579,0.550,��,1.9,��
2023/03/22,14:20,0.562,0.821,0.498,1.025,0.723,0.319,0.578,0.549,���쓌,0.9,��
2023/03/22,14:30,0.563,0.823,0.499,1.026,0.722,0.320,0.581,0.549,�k�k��,1.2,��
2023/03/22,14:40,0.561,0.820,0.498,1.023,0.723,0.320,0.580,0.549,�k��,1.5,��
2023/03/22,14:50,0.564,0.821,0.497,1.026,0.723,0.322,0.579,0.550,�k��,1.5,��
2023/03/22,15:00,0.561,0.821,0.494,1.027,0.723,0.320,0.580,0.550,�k��,2.0,��
2023/03/22,15:10,0.563,0.822,0.496,1.027,0.722,0.321,0.579,0.549,���k��,1.9,��
2023/03/22,15:20,0.563,0.821,0.497,1.027,0.721,0.322,0.580,0.548,���k��,1.7,��
2023/03/22,15:30,0.562,0.821,0.497,1.025,0.724,0.319,0.579,0.547,��,2.6,��
2023/03/22,15:40,0.561,0.820,0.496,1.025,0.721,0.321,0.580,0.548,���쓌,3.7,��
2023/03/22,15:50,0.563,0.822,0.497,1.027,0.723,0.322,0.579,0.550,���쓌,3.5,��
2023/03/22,16:00,0.561,0.822,0.495,1.027,0.722,0.321,0.579,0.547,���쓌,2.9,��
2023/03/22,16:10,0.563,0.822,0.497,1.027,0.724,0.322,0.578,0.548,���쓌,2.5,��
2023/03/22,16:20,0.563,0.824,0.497,1.027,0.722,0.322,0.578,0.547,���쓌,2.0,��
2023/03/22,16:30,0.562,0.822,0.496,1.027,0.723,0.322,0.578,0.547,���쓌,2.3,��
2023/03/22,16:40,0.563,0.822,0.497,1.023,0.724,0.323,0.578,0.547,�쓌,1.5,��
2023/03/22,16:50,0.561,0.822,0.495,1.027,0.722,0.322,0.578,0.548,���쓌,2.3,��
2023/03/22,17:00,0.561,0.823,0.497,1.024,0.723,0.323,0.578,0.549,���쓌,2.6,��
2023/03/22,17:10,0.562,0.824,0.496,1.024,0.721,0.322,0.577,0.551,�쓌,1.7,��
2023/03/22,17:20,0.563,0.824,0.495,1.027,0.722,0.321,0.576,0.550,���쓌,1.9,��
2023/03/22,17:30,0.563,0.824,0.496,1.024,0.723,0.321,0.579,0.550,�쓌,2.3,��
2023/03/22,17:40,0.563,0.823,0.499,1.026,0.721,0.322,0.580,0.550,��쓌,2.0,��
2023/03/22,17:50,0.563,0.825,0.497,1.025,0.722,0.323,0.578,0.551,��쓌,2.3,��
2023/03/22,18:00,0.565,0.822,0.499,1.025,0.721,0.322,0.579,0.548,��쓌,2.3,��
2023/03/22,18:10,0.564,0.825,0.498,1.025,0.722,0.322,0.579,0.549,��쓌,2.2,��
2023/03/22,18:20,0.562,0.824,0.499,1.024,0.722,0.322,0.580,0.550,��쓌,3.2,��
2023/03/22,18:30,0.564,0.824,0.500,1.025,0.723,0.323,0.579,0.551,��쓌,2.6,��
2023/03/22,18:40,0.562,0.823,0.498,1.027,0.723,0.322,0.579,0.549,��쓌,3.2,��
2023/03/22,18:50,0.563,0.822,0.499,1.026,0.724,0.321,0.578,0.550,��쓌,3.2,��
2023/03/22,19:00,0.565,0.823,0.498,1.026,0.724,0.322,0.578,0.550,��쓌,3.4,��
2023/03/22,19:10,0.563,0.825,0.499,1.028,0.723,0.323,0.579,0.551,��쓌,3.6,��
2023/03/22,19:20,0.564,0.823,0.498,1.026,0.723,0.322,0.580,0.548,��쓌,4.2,��
2023/03/22,19:30,0.563,0.823,0.499,1.026,0.723,0.323,0.579,0.549,��쓌,4.9,��
2023/03/22,19:40,0.563,0.825,0.499,1.027,0.724,0.323,0.580,0.550,��,4.9,��
2023/03/22,19:50,0.563,0.825,0.499,1.026,0.723,0.321,0.580,0.550,��,4.5,��
2023/03/22,20:00,0.563,0.823,0.499,1.026,0.722,0.322,0.580,0.550,��,4.1,��
2023/03/22,20:10,0.563,0.824,0.498,1.024,0.721,0.323,0.578,0.548,��,4.6,��
2023/03/22,20:20,0.564,0.823,0.497,1.024,0.724,0.323,0.578,0.548,��쓌,5.0,��
2023/03/22,20:30,0.563,0.823,0.497,1.026,0.723,0.323,0.579,0.550,��,5.1,��
2023/03/22,20:40,0.564,0.823,0.498,1.026,0.724,0.322,0.579,0.549,��쓌,5.9,��
2023/03/22,20:50,0.564,0.823,0.497,1.026,0.725,0.323,0.581,0.548,��,5.3,��
2023/03/22,21:00,0.562,0.824,0.499,1.024,0.723,0.322,0.579,0.549,��,6.1,��
2023/03/22,21:10,0.564,0.823,0.499,1.023,0.722,0.322,0.577,0.550,��,5.5,��
2023/03/22,21:20,0.563,0.822,0.497,1.026,0.723,0.322,0.579,0.549,��,4.6,��
2023/03/22,21:30,0.563,0.823,0.499,1.024,0.721,0.321,0.580,0.550,��,4.7,��
2023/03/22,21:40,0.564,0.822,0.498,1.024,0.723,0.323,0.579,0.548,-,CALM,��
2023/03/22,21:50,0.563,0.821,0.497,1.026,0.722,0.322,0.578,0.549,��,4.6,��
2023/03/22,22:00,0.562,0.821,0.499,1.026,0.723,0.322,0.579,0.549,��,4.8,��
2023/03/22,22:10,0.563,0.821,0.497,1.026,0.723,0.322,0.578,0.549,��,4.8,��
2023/03/22,22:20,0.562,0.822,0.497,1.025,0.722,0.322,0.578,0.548,��,5.1,��
2023/03/22,22:30,0.563,0.822,0.497,1.023,0.723,0.321,0.577,0.549,��,5.0,��
2023/03/22,22:40,0.564,0.822,0.498,1.024,0.724,0.322,0.578,0.548,��,4.3,��
2023/03/22,22:50,0.564,0.822,0.499,1.024,0.722,0.321,0.579,0.549,��,4.7,��
2023/03/22,23:00,0.564,0.821,0.496,1.022,0.723,0.323,0.578,0.548,��,4.1,��
2023/03/22,23:10,0.563,0.823,0.497,1.025,0.722,0.323,0.578,0.550,��,4.0,��
2023/03/22,23:20,0.562,0.822,0.498,1.025,0.721,0.323,0.579,0.549,��,4.2,��
2023/03/22,23:30,0.563,0.821,0.500,1.026,0.722,0.323,0.579,0.550,��,4.0,��
2023/03/22,23:40,0.564,0.821,0.497,1.026,0.720,0.323,0.576,0.549,��,4.4,��
2023/03/22,23:50,0.564,0.823,0.497,1.027,0.723,0.322,0.578,0.548,��,3.9,��
